Weather in Aleynikovo

Russia / Belgorod Oblast     50°28′07″N   38°49′58″E
temp.,
°C
wind,
m/s
gust,
m/s
humid.,
%
clouds,
%
prec.,
mm/h
press.,
hPa
HPBL,
m
16 may, mon
mon1600:00+8w4993100 0.0 1010202
03:00+7w4109532 0.0 1010264
06:00+8w5119438 0.0 1010416
09:00+11nw710719 0.0 10111052
12:00+14wnw8105158 0.2 10112180
15:00+14wnw7105429 0.3 10111932
18:00+14wnw610562 0.1 10111355
21:00+8wsw487862 0.1 1012120
17 may, tue
tue1700:00+7w41086100 0.1 1012208
03:00+5w512841 0.1 1012315
06:00+5w512815 0.0 1012382
09:00+11wnw711583 0.0 10111410
12:00+14wnw8104499 0.3 10102700
15:00+15wnw8114198 0.3 10092856
18:00+13w69604 0.2 10091105
21:00+8wsw49805 0.3 1009146
18 may, wed
wed1800:00+6w498518 0.0 1008160
03:00+4w49900 0.0 1008146
06:00+5wnw410875 0.0 1008296
09:00+10nw677158 0.0 10091073
12:00+9nw6677100 0.1 1010905
15:00+11nnw577697 0.3 10101024
18:00+10n688095 0.3 1012783
21:00+7nw37935 0.3 1014140
19 may, thu
thu1900:00+5nw38956 0.0 1015164
03:00+5nw38955 0.0 1016161
06:00+5nw49945 0.0 1018290
09:00+10nw577061 0.0 10191137
12:00+13wnw795353 0.0 10181680
15:00+14wnw91359100 0.1 10171849
18:00+14wnw8136489 0.3 10161439
21:00+9nnw3990100 1.1 1018494
20 may, fri
fri2000:00+8nnw3693100 1.7 1018348
03:00+6nw359121 2.0 1019155
06:00+6nnw23931 0.0 1020113
09:00+11nnw23714 0.0 1020840
12:00+14nw344975 0.1 10191969
15:00+14wnw3453100 0.1 10181737
18:00+13ssw2363100 0.0 1016149
21:00+10s3665100 0.0 1015110